Weather History for KELN - May, 2013

Change the Weather History Date:

Tuesday, May 14, 2013

  Actual Average (KYKM) Record (KYKM)
Temperature  
Mean Temperature 54 °F 57 °F  
Max Temperature 68 °F 72 °F 95 °F (1973)
Min Temperature 43 °F 42 °F 26 °F (1964)
Degree Days  
Heating Degree Days 10 9  
Month to date heating degree days 148  
Since 1 July heating degree days 5830  
Cooling Degree Days 0 1  
Month to date cooling degree days 3  
Year to date cooling degree days 4  
Growing Degree Days 4 (Base 50)    
Moisture  
Dew Point 31 °F    
Average Humidity 44    
Maximum Humidity 65    
Minimum Humidity 23    
Precipitation  
Precipitation 0.00 in 0.02 in 1.06 in (2011)
Month to date precipitation 0.25  
Year to date precipitation 3.34  
Snow  
Snow 0.00 in 0.00 in 0.00 in (2002)
Month to date snowfall 0.0  
Year to date snowfall 8.6  
Since 1 July snowfall 21.6  
Snow Depth -    
Sea Level Pressure  
Sea Level Pressure 30.11 in    
Wind  
Wind Speed 12 mph (NW)    
Max Wind Speed 17 mph    
Max Gust Speed 24 mph    
Visibility 10 miles    
Events      
T = Trace of Precipitation, MM = Missing Value Source: NWS Daily Summary

Daily Weather History Graph

Daily Weather History Graph

Search for Another Location

Airport or City:

Trip Planner

Search our weather history database for the weather conditions in past years. The results will help you decide how hot, cold, wet, or windy it might be!

Date:

Astronomy

May. 14, 2013 Rise Set
Actual Time 5:27 AM PDT 8:30 PM PDT
Civil Twilight 4:51 AM PDT 9:06 PM PDT
Nautical Twilight 4:05 AM PDT 9:53 PM PDT
Astronomical Twilight 3:08 AM PDT 10:50 PM PDT
Moon 9:12 AM PDT (5/14) No Moon Set
Length of Visible Light 16h 14m
Length of Day
15h 02m
Waxing Crescent, 19% of the Moon is Illuminated
May 14
Waxing Crescent
May 17
First Quarter
May 24
Full
May 31
Last Quarter
Jun 8
New

Hourly Weather History & Observations

Time (PDT) Temp. Windchill Dew Point Humidity Pressure Visibility Wind Dir Wind Speed Gust Speed Precip Events Conditions
12:53 AM 43.0 °F 36.0 °F 32.0 °F 65% 30.15 in 10.0 mi NW 13.8 mph - N/A   Clear
1:53 AM 44.1 °F 38.6 °F 32.0 °F 63% 30.16 in 10.0 mi NNW 10.4 mph - N/A   Clear
2:53 AM 45.0 °F 41.2 °F 30.9 °F 58% 30.16 in 10.0 mi WNW 6.9 mph - N/A   Clear
3:53 AM 44.1 °F 40.8 °F 33.1 °F 65% 30.17 in 10.0 mi West 5.8 mph - N/A   Clear
4:53 AM 44.1 °F 42.5 °F 33.1 °F 65% 30.16 in 10.0 mi NNW 3.5 mph - N/A   Clear
5:53 AM 46.0 °F 39.9 °F 33.1 °F 61% 30.16 in 10.0 mi WNW 13.8 mph - N/A   Clear
6:53 AM 46.9 °F - 33.1 °F 59% 30.18 in 10.0 mi WNW 16.1 mph - N/A   Clear
7:53 AM 48.9 °F - 33.1 °F 54% 30.16 in 10.0 mi WNW 10.4 mph - N/A   Unknown
8:53 AM 51.1 °F - 33.1 °F 50% 30.16 in 10.0 mi WNW 16.1 mph 23.0 mph N/A   Overcast
9:53 AM 54.0 °F - 33.1 °F 45% 30.15 in 10.0 mi WNW 16.1 mph - N/A   Scattered Clouds
10:53 AM 59.0 °F - 30.9 °F 35% 30.14 in 10.0 mi NW 10.4 mph - N/A   Partly Cloudy
11:53 AM 61.0 °F - 30.0 °F 31% 30.13 in 10.0 mi WNW 9.2 mph - N/A   Clear
12:53 PM 64.0 °F - 25.0 °F 23% 30.10 in 10.0 mi WNW 10.4 mph - N/A   Clear
1:53 PM 66.0 °F - 27.0 °F 23% 30.09 in 10.0 mi WNW 12.7 mph 19.6 mph N/A   Clear
2:53 PM 66.9 °F - 28.9 °F 24% 30.08 in 10.0 mi NW 12.7 mph 19.6 mph N/A   Clear
3:53 PM 66.9 °F - 28.9 °F 24% 30.07 in 10.0 mi WNW 16.1 mph 21.9 mph N/A   Clear
4:53 PM 66.9 °F - 32.0 °F 27% 30.06 in 10.0 mi WNW 17.3 mph 24.2 mph N/A   Clear
5:53 PM 64.9 °F - 30.9 °F 28% 30.05 in 10.0 mi WNW 15.0 mph - N/A   Clear
6:53 PM 63.0 °F - 30.9 °F 30% 30.05 in 10.0 mi WNW 16.1 mph - N/A   Clear
7:53 PM 59.0 °F - 30.9 °F 35% 30.06 in 10.0 mi WNW 16.1 mph - N/A   Clear
8:53 PM 55.0 °F - 32.0 °F 42% 30.07 in 10.0 mi NW 13.8 mph - N/A   Clear
9:53 PM 48.9 °F - 33.1 °F 54% 30.08 in 10.0 mi NW 10.4 mph - N/A   Clear
10:53 PM 50.0 °F - 33.1 °F 52% 30.07 in 10.0 mi NW 12.7 mph - N/A   Clear
11:53 PM 50.0 °F - 33.1 °F 52% 30.08 in 10.0 mi NW 12.7 mph - N/A   Clear